Meridian NAS, MS

8:47 AM CDT on May 28, 2017 (GMT -0500)
Meridian Naval Air Station

Weather History for KNMM - May, 2014

Change the Weather History Date:

Friday, May 16, 2014

  Actual Average Record
Temperature  
Mean Temperature 60 °F -  
Max Temperature 73 °F 80 °F 91 °F (2017)
Min Temperature 48 °F 59 °F 48 °F (2006)
Degree Days  
Heating Degree Days 5    
Growing Degree Days 10 (Base 50)    
Moisture  
Dew Point 45 °F    
Average Humidity 67    
Maximum Humidity 90    
Minimum Humidity 28    
Precipitation  
Precipitation 0.00 in - - ()
Sea Level Pressure  
Sea Level Pressure 30.17 in    
Wind  
Wind Speed 3 mph (WNW)    
Max Wind Speed 9 mph    
Max Gust Speed -    
Visibility 10 miles    
Events Rain    
Averages and records for this station are not official NWS values.
T = Trace of Precipitation, MM = Missing Value Source: NWS Daily Summary

Daily Weather History Graph

Daily Weather History Graph

Search for Another Location

Airport or City:

Trip Planner

Search our weather history database for the weather conditions in past years. The results will help you decide how hot, cold, wet, or windy it might be!

Date:

Astronomy

May. 16, 2014 Rise Set
Actual Time 5:55 AM CDT 7:46 PM CDT
Civil Twilight 5:28 AM CDT 8:13 PM CDT
Nautical Twilight 4:55 AM CDT 8:46 PM CDT
Astronomical Twilight 4:20 AM CDT 9:21 PM CDT
Moon 9:53 PM CDT (5/16) 7:36 AM CDT (5/16)
Length of Visible Light 14h 45m
Length of Day
13h 51m
Waning Gibbous, 95% of the Moon is Illuminated
May 16
Waning Gibbous
May 21
Last Quarter
May 28
New
Jun 5
First Quarter
Jun 12
Full

Hourly Weather History & Observations

Time (CDT) Temp. Dew Point Humidity Pressure Visibility Wind Dir Wind Speed Gust Speed Precip Events Conditions
12:56 AM 50.0 °F 46.9 °F 89% 30.18 in 10.0 mi Calm Calm - N/A   Clear
1:56 AM 50.0 °F 46.0 °F 86% 30.17 in 10.0 mi Calm Calm - N/A   Clear
2:56 AM 48.9 °F 45.0 °F 86% 30.17 in 10.0 mi Calm Calm - N/A   Clear
3:56 AM 48.9 °F 45.0 °F 86% 30.16 in 10.0 mi Calm Calm - N/A   Clear
4:56 AM 48.9 °F 46.0 °F 90% 30.16 in 10.0 mi WSW 5.8 mph - N/A   Partly Cloudy
5:56 AM 50.0 °F 46.9 °F 89% 30.17 in 10.0 mi Calm Calm - N/A   Mostly Cloudy
6:03 AM 50.0 °F 46.9 °F 89% 30.14 in 10.0 mi WNW 3.5 mph - N/A   Scattered Clouds
6:56 AM 52.0 °F 48.0 °F 86% 30.19 in 10.0 mi West 4.6 mph - N/A   Mostly Cloudy
7:56 AM 54.0 °F 48.9 °F 83% 30.21 in 10.0 mi West 8.1 mph - N/A   Mostly Cloudy
8:56 AM 55.0 °F 50.0 °F 83% 30.23 in 10.0 mi WNW 9.2 mph - 0.00 in Rain Light Rain
9:56 AM 57.9 °F 50.0 °F 75% 30.23 in 10.0 mi NNW 8.1 mph - 0.00 in   Overcast
10:56 AM 60.1 °F 51.1 °F 72% 30.23 in 10.0 mi West 6.9 mph - 0.00 in   Overcast
11:56 AM 64.9 °F 43.0 °F 45% 30.22 in 10.0 mi NNE 5.8 mph - N/A   Mostly Cloudy
12:56 PM 66.9 °F 37.0 °F 33% 30.19 in 10.0 mi Calm Calm - N/A   Scattered Clouds
1:56 PM 70.0 °F 35.1 °F 28% 30.18 in 10.0 mi Variable 4.6 mph - N/A   Scattered Clouds
2:56 PM 71.1 °F 39.9 °F 32% 30.17 in 10.0 mi WSW 8.1 mph - N/A   Partly Cloudy
3:56 PM 71.1 °F 43.0 °F 36% 30.14 in 10.0 mi West 5.8 mph - N/A   Partly Cloudy
4:56 PM 72.0 °F 39.0 °F 30% 30.14 in 10.0 mi Variable 6.9 mph - N/A   Partly Cloudy
5:56 PM 72.0 °F 39.0 °F 30% 30.13 in 10.0 mi NW 8.1 mph - N/A   Clear
6:56 PM 70.0 °F 42.1 °F 36% 30.13 in 10.0 mi NNW 4.6 mph - N/A   Clear
7:56 PM 60.1 °F 48.9 °F 67% 30.14 in 10.0 mi Calm Calm - N/A   Clear
8:56 PM 55.9 °F 48.9 °F 77% 30.14 in 10.0 mi ESE 3.5 mph - N/A   Clear
9:56 PM 55.0 °F 48.9 °F 80% 30.14 in 10.0 mi South 3.5 mph - N/A   Clear
10:56 PM 55.0 °F 48.0 °F 77% 30.16 in 10.0 mi Calm Calm - N/A   Clear
11:56 PM 54.0 °F 48.9 °F 83% 30.17 in 10.0 mi Calm Calm - N/A   Clear